(712) Boliviana

Orbital Elements

The following orbital elements are taken from MPC 22574:
  (712) Boliviana
Epoch 2001 Apr. 1.0 TT = JDT 2452000.5   (M-c)          Goffin
M 323.14941              (2000.0)            P               Q
n   0.23868980     Peri.  181.56644     +0.60687667     -0.77590703
a   2.5738317      Node   231.10758     +0.73159635     +0.63003337
e   0.1878829      Incl.   12.78565     +0.31059214     +0.03203482
P   4.13           H    8.32          G   0.03
From 150 observations at 35 oppositions, 1911-1992, mean residual 0".96.
An explanation of the orbital elements is available.

These orbital elements are also available in forms suitable for loading into a number of popular planetarium-type software programs.


Ephemeris

The following ephemeris is at intervals of five days. A daily ephemeris covering the same time interval is also available.

Date    TT    R. A. (2000) Decl.     Delta      r     Elong.  Phase     V
 
2001 11 07    06 29.39   +15 01.6    1.367    2.117   127.0    22.0    11.9
2001 11 12    06 29.36   +14 12.9    1.329    2.121   131.8    20.4    11.8
2001 11 17    06 28.41   +13 24.0    1.295    2.126   136.7    18.6    11.6
2001 11 22    06 26.58   +12 35.6    1.265    2.131   141.8    16.7    11.5
2001 11 27    06 23.92   +11 48.2    1.240    2.136   147.0    14.6    11.4
2001 12 02    06 20.52   +11 02.8    1.220    2.141   152.0    12.5    11.3
2001 12 07    06 16.48   +10 19.9    1.205    2.146   156.9    10.4    11.2
2001 12 12    06 11.94   +09 40.3    1.197    2.152   161.2     8.5    11.1
2001 12 17    06 07.08   +09 04.9    1.195    2.158   164.2     7.1    11.0
2001 12 22    06 02.09   +08 34.2    1.199    2.164   165.1     6.7    11.0
2001 12 27    05 57.18   +08 08.7    1.210    2.171   163.6     7.3    11.0
2002 01 01    05 52.52   +07 48.6    1.227    2.178   160.2     8.8    11.1
2002 01 06    05 48.29   +07 34.1    1.250    2.185   155.8    10.6    11.3

Back to Bright Minor Planets

Astronomical Headlines Index

MPC